SL-8 R/B, 14402

Orbit data source: Space-Track

SL-8 R/B, 14402 is space debris in LEO originally from a launch on Wed, 12 Oct 1983 UTC launched from the Plesetsk Missile And Space Complex (PKMTR). Debris objects in space refer to the collection of defunct objects orbiting the Earth. Examples of debris include non-operational satellites, rocket bodies, and fragments generated from explosions, collisions, or faulty payload assembly.

Loading next visibility...
Identifier
14402, 1983-103B
Orbit
LEO
Country
Flag of CISCIS
Related business
Manufacturer
Omsk Av. Zav.
Mission
Spacecraft
Bus & Motor
S3, Unknown motor
Mass
1,434 kg wet, 1,434 kg dry
Launch date (UTC)
1983-10-12 (43 years ago)
Launch vehicle
Unknown
Launch site
Plesetsk Missile And Space Complex (PKMTR)
Object type
Payload
Rocket body
Debris
Shape & HBR
Unknown
Radar Cross Section
Large (>1 m²)

Expand to show TLE details & history
Last TLE update: 2 days ago

TLE from 2 days ago
0 SL-8 R/B
1 14402U 83103B   26171.44968299  .00000189  00000-0  71615-4 0  9996
2 14402  74.0452 333.6466 0025517  84.3973 276.0089 14.37410067234408
Epoch: 2026-06-20T10:47Z
TLE epoch observation values (Epoch: 2026-06-20T10:47:32.610Z)
Latitude
-0.00008°
Longitude
-96.90344°
Altitude
767.819 km
Speed
7.471 km/s
True Right ascension
22h 14m 35s
True Declination
0° 00' 00"
Sunlit
Object was in daylight at epoch
Visualization orbit readout
Latitude
Unknown
Longitude
Unknown
Altitude
Unknown
Speed
Unknown
Apparent Right ascension
Unknown
Apparent Declination
Unknown
Sunlit
N/A
Visualization observer readout
Local Sidereal Time
23:08:12
Azimuth
Unknown
Elevation
Unknown
Doppler factor
Unknown
Orbital elements
Apogee altitude
782.916 km
Perigee altitude
746.464 km
Semi-major axis
7,142.827 km
Eccentricity
0.00255
Inclination
74.0452°
RAAN
333.6466°
Arg. of periapsis
84.3973°
True anomaly
275.71801°
Mean anomaly
276.0089°
Eccentric anomaly
275.86346°
Mean motion
3.59532 °/min
Orbital period
100.13 mins
BSTAR
0.000071615
Loading maneuver chart data...
Computing Atmospheric mass density...
Loading historical data...
Loading historical data...
Loading historical data...
Loading historical data...
Loading historical data...
Loading historical data...
Loading historical data...
Other satellites on launch #103 in the year 1983 (1983-10-12 UTC)

Documentation

Showing up to 5 results
|